LNR032 LFPB-LFBX

Flight info

Callsign LNR032
Flight time 0h 49m
Altitude 29000
Route AGOPA DCT ARKIP DCT ARMAL DCT ARTAX DCT BEBIX DCT LMG
Aircraft C750/M-SBDE3FGHRWXY/S

Departure

Time 2026-05-05 08:57
Airport Paris-Le Bourget International Airport (LFPB)

Arrival

Time 2026-05-05 09:46
Airport Périgueux-Bassillac Airport (LFBX)
Time Latitude Longitude Altitude Speed Heading
2026-05-05 08:47 48.96014 2.44442 158 ft 0 kts 226°
2026-05-05 08:50 48.96012 2.44439 157 ft 1 kts 226°
2026-05-05 08:51 48.96009 2.44412 157 ft 4 kts 276°
2026-05-05 08:51 48.96019 2.44370 158 ft 5 kts 295°
2026-05-05 08:51 48.96032 2.44313 159 ft 6 kts 268°
2026-05-05 08:51 48.95999 2.44271 159 ft 7 kts 207°
2026-05-05 08:52 48.95943 2.44234 157 ft 12 kts 205°
2026-05-05 08:52 48.95858 2.44174 153 ft 14 kts 205°
2026-05-05 08:52 48.95772 2.44111 153 ft 13 kts 205°
2026-05-05 08:52 48.95698 2.44024 152 ft 13 kts 267°
2026-05-05 08:53 48.95723 2.43907 151 ft 10 kts 294°
2026-05-05 08:53 48.95753 2.43807 152 ft 14 kts 294°
2026-05-05 08:53 48.95798 2.43656 153 ft 18 kts 295°
2026-05-05 08:53 48.95854 2.43477 159 ft 19 kts 295°
2026-05-05 08:54 48.95915 2.43272 156 ft 22 kts 292°
2026-05-05 08:54 48.95984 2.43070 153 ft 21 kts 304°
2026-05-05 08:54 48.96083 2.42895 149 ft 21 kts 310°
2026-05-05 08:54 48.96165 2.42731 153 ft 17 kts 305°
2026-05-05 08:55 48.96240 2.42585 158 ft 20 kts 308°
2026-05-05 08:55 48.96266 2.42384 156 ft 20 kts 266°
2026-05-05 08:55 48.96260 2.42196 157 ft 16 kts 267°
2026-05-05 08:55 48.96295 2.42070 155 ft 13 kts 339°
2026-05-05 08:56 48.96386 2.42084 152 ft 13 kts 33°
2026-05-05 08:56 48.96465 2.42316 158 ft 60 kts 68°
2026-05-05 08:56 48.96745 2.43370 178 ft 143 kts 68°
2026-05-05 08:56 48.97111 2.44835 674 ft 148 kts 67°
2026-05-05 08:57 48.97127 2.46511 1102 ft 173 kts 96°
2026-05-05 08:57 48.96945 2.48428 1603 ft 194 kts 94°
2026-05-05 08:57 48.96830 2.50528 2017 ft 206 kts 92°
2026-05-05 08:57 48.96751 2.52001 2294 ft 221 kts 93°
2026-05-05 08:58 48.96606 2.54467 2642 ft 246 kts 94°
2026-05-05 08:58 48.96451 2.57065 3703 ft 245 kts 93°
2026-05-05 08:58 48.96295 2.59672 4700 ft 250 kts 95°
2026-05-05 08:58 48.96114 2.62316 5622 ft 253 kts 95°
2026-05-05 08:59 48.95940 2.65019 6511 ft 259 kts 95°
2026-05-05 08:59 48.95771 2.67777 7428 ft 262 kts 95°
2026-05-05 08:59 48.95598 2.70568 8419 ft 267 kts 94°
2026-05-05 08:59 48.95424 2.73407 9396 ft 272 kts 95°
2026-05-05 09:00 48.95256 2.76083 10141 ft 278 kts 94°
2026-05-05 09:00 48.95022 2.79236 10357 ft 304 kts 99°
2026-05-05 09:00 48.94102 2.82304 10228 ft 339 kts 125°
2026-05-05 09:00 48.92272 2.84616 10874 ft 346 kts 149°
2026-05-05 09:01 48.89940 2.85588 11585 ft 355 kts 175°
2026-05-05 09:01 48.87508 2.84832 12243 ft 364 kts 202°
2026-05-05 09:01 48.85536 2.82505 12925 ft 370 kts 229°
2026-05-05 09:01 48.84389 2.79002 13652 ft 375 kts 255°
2026-05-05 09:02 48.84111 2.75063 14338 ft 378 kts 268°
2026-05-05 09:02 48.84153 2.71053 15026 ft 381 kts 271°
2026-05-05 09:02 48.84186 2.67019 15738 ft 385 kts 268°
2026-05-05 09:02 48.83794 2.62993 16349 ft 387 kts 251°
2026-05-05 09:03 48.82618 2.59326 17103 ft 386 kts 235°
2026-05-05 09:03 48.81035 2.56017 17814 ft 388 kts 231°
2026-05-05 09:03 48.79422 2.52701 18511 ft 391 kts 232°
2026-05-05 09:03 48.77851 2.49309 19155 ft 395 kts 233°
2026-05-05 09:04 48.76282 2.45885 19808 ft 398 kts 232°
2026-05-05 09:04 48.74683 2.42500 20459 ft 401 kts 232°
2026-05-05 09:04 48.72873 2.39298 21035 ft 402 kts 220°
2026-05-05 09:04 48.70626 2.36799 21715 ft 400 kts 209°
2026-05-05 09:05 48.68226 2.34653 22362 ft 403 kts 208°
2026-05-05 09:05 48.65798 2.32486 23024 ft 406 kts 208°
2026-05-05 09:05 48.63495 2.30407 23573 ft 409 kts 208°
2026-05-05 09:05 48.61035 2.28183 24068 ft 412 kts 208°
2026-05-05 09:06 48.58579 2.25976 24512 ft 398 kts 208°
2026-05-05 09:06 48.56334 2.23949 24497 ft 356 kts 208°
2026-05-05 09:06 48.54281 2.22105 24457 ft 329 kts 208°
2026-05-05 09:06 48.52375 2.20411 24403 ft 311 kts 208°
2026-05-05 09:07 48.50552 2.18786 24341 ft 298 kts 208°
2026-05-05 09:07 48.48793 2.17233 24299 ft 288 kts 207°
2026-05-05 09:07 48.47080 2.15738 24255 ft 281 kts 207°
2026-05-05 09:07 48.45402 2.14270 24218 ft 276 kts 207°
2026-05-05 09:08 48.43807 2.12869 24186 ft 273 kts 207°
2026-05-05 09:08 48.42197 2.11456 24160 ft 270 kts 207°
2026-05-05 09:08 48.40618 2.10073 24156 ft 267 kts 207°
2026-05-05 09:08 48.39016 2.08673 24168 ft 266 kts 207°
2026-05-05 09:09 48.37413 2.07270 24173 ft 265 kts 207°
2026-05-05 09:09 48.35827 2.05883 24163 ft 264 kts 207°
2026-05-05 09:09 48.34243 2.04499 24162 ft 263 kts 207°
2026-05-05 09:09 48.32666 2.03123 24158 ft 262 kts 207°
2026-05-05 09:10 48.31267 2.01903 24143 ft 261 kts 207°
2026-05-05 09:10 48.29665 2.00657 24083 ft 257 kts 195°
2026-05-05 09:10 48.27920 2.00388 24028 ft 250 kts 177°
2026-05-05 09:10 48.26132 2.00464 24062 ft 267 kts 176°
2026-05-05 09:11 48.24214 2.00535 24122 ft 291 kts 177°
2026-05-05 09:11 48.22102 2.00587 24190 ft 315 kts 177°
2026-05-05 09:11 48.19840 2.00642 24271 ft 337 kts 177°
2026-05-05 09:11 48.17405 2.00713 24318 ft 359 kts 177°
2026-05-05 09:12 48.14833 2.00790 24371 ft 379 kts 177°
2026-05-05 09:12 48.12125 2.00866 24463 ft 398 kts 177°
2026-05-05 09:12 48.09293 2.00947 24520 ft 415 kts 177°
2026-05-05 09:12 48.06386 2.01110 24914 ft 419 kts 176°
2026-05-05 09:13 48.03457 2.01286 25476 ft 421 kts 176°
2026-05-05 09:13 48.00522 2.01433 26009 ft 424 kts 176°
2026-05-05 09:13 47.97560 2.01604 26507 ft 428 kts 176°
2026-05-05 09:13 47.94565 2.01796 27010 ft 432 kts 176°
2026-05-05 09:14 47.91555 2.01982 27562 ft 434 kts 176°
2026-05-05 09:14 47.88526 2.02155 28075 ft 437 kts 176°
2026-05-05 09:14 47.85483 2.02327 28607 ft 435 kts 176°
2026-05-05 09:14 47.82469 2.02507 28826 ft 443 kts 176°
2026-05-05 09:15 47.79368 2.02697 28810 ft 451 kts 176°
2026-05-05 09:15 47.76189 2.02886 28821 ft 464 kts 176°
2026-05-05 09:15 47.72917 2.03075 28821 ft 476 kts 176°
2026-05-05 09:15 47.69557 2.03272 28830 ft 487 kts 176°
2026-05-05 09:16 47.66142 2.03475 28823 ft 494 kts 176°
2026-05-05 09:16 47.59188 2.03880 28824 ft 504 kts 176°
2026-05-05 09:17 47.52146 2.04277 28829 ft 507 kts 176°
2026-05-05 09:17 47.45078 2.04683 28828 ft 508 kts 176°
2026-05-05 09:18 47.38019 2.05081 28828 ft 508 kts 176°
2026-05-05 09:18 47.30980 2.04529 28821 ft 513 kts 188°
2026-05-05 09:19 47.23931 2.02717 28833 ft 513 kts 187°
2026-05-05 09:19 47.16878 2.00959 28844 ft 513 kts 188°
2026-05-05 09:20 47.09864 1.99171 28842 ft 511 kts 187°
2026-05-05 09:20 47.02842 1.97419 28851 ft 510 kts 187°
2026-05-05 09:20 46.99459 1.96561 28834 ft 476 kts 187°
2026-05-05 09:21 46.96300 1.95759 28830 ft 447 kts 187°
2026-05-05 09:21 46.90223 1.94261 28848 ft 447 kts 187°
2026-05-05 09:22 46.84085 1.92717 28845 ft 448 kts 187°
2026-05-05 09:22 46.77921 1.91187 28852 ft 448 kts 187°
2026-05-05 09:23 46.71758 1.89653 28854 ft 448 kts 187°
2026-05-05 09:23 46.65610 1.88130 28859 ft 448 kts 187°
2026-05-05 09:24 46.59453 1.86608 28864 ft 448 kts 187°
2026-05-05 09:24 46.53318 1.85092 28870 ft 443 kts 187°
2026-05-05 09:25 46.47283 1.83609 28874 ft 442 kts 187°
2026-05-05 09:25 46.41214 1.82117 28875 ft 443 kts 187°
2026-05-05 09:26 46.35143 1.80630 28892 ft 443 kts 187°
2026-05-05 09:26 46.29110 1.78970 28805 ft 443 kts 193°
2026-05-05 09:26 46.26222 1.77400 28240 ft 444 kts 202°
2026-05-05 09:27 46.23538 1.75235 27683 ft 441 kts 210°
2026-05-05 09:27 46.21106 1.72531 27120 ft 439 kts 218°
2026-05-05 09:27 46.18819 1.69639 26564 ft 436 kts 218°
2026-05-05 09:27 46.16529 1.66787 25994 ft 433 kts 218°
2026-05-05 09:28 46.14255 1.63976 25437 ft 427 kts 218°
2026-05-05 09:28 46.12030 1.61199 24902 ft 421 kts 218°
2026-05-05 09:28 46.09823 1.58440 24389 ft 419 kts 218°
2026-05-05 09:28 46.07611 1.55691 23851 ft 419 kts 218°
2026-05-05 09:29 46.05440 1.53001 23305 ft 415 kts 218°
2026-05-05 09:29 46.03264 1.50303 22765 ft 410 kts 218°
2026-05-05 09:29 46.01111 1.47631 22238 ft 407 kts 218°
2026-05-05 09:29 45.98970 1.44982 21734 ft 404 kts 218°
2026-05-05 09:30 45.96847 1.42351 21207 ft 400 kts 219°
2026-05-05 09:30 45.94943 1.39456 20673 ft 396 kts 231°
2026-05-05 09:30 45.93532 1.36077 20208 ft 394 kts 240°
2026-05-05 09:30 45.92299 1.32568 19703 ft 392 kts 241°
2026-05-05 09:31 45.91072 1.29103 19201 ft 388 kts 240°
2026-05-05 09:31 45.89844 1.25660 18694 ft 385 kts 241°
2026-05-05 09:31 45.88629 1.22252 18198 ft 382 kts 241°
2026-05-05 09:31 45.87422 1.18877 17670 ft 377 kts 241°
2026-05-05 09:32 45.86236 1.15532 17185 ft 375 kts 241°
2026-05-05 09:32 45.85056 1.12214 16706 ft 372 kts 241°
2026-05-05 09:32 45.83840 1.08956 16210 ft 368 kts 237°
2026-05-05 09:32 45.82201 1.06265 15728 ft 362 kts 220°
2026-05-05 09:33 45.80108 1.04327 15256 ft 357 kts 205°
2026-05-05 09:33 45.77741 1.03291 14792 ft 355 kts 190°
2026-05-05 09:33 45.75274 1.03203 14376 ft 355 kts 177°
2026-05-05 09:33 45.72802 1.03483 13962 ft 354 kts 177°
2026-05-05 09:34 45.70354 1.03741 13474 ft 353 kts 177°
2026-05-05 09:34 45.67925 1.03982 12997 ft 347 kts 178°
2026-05-05 09:34 45.65512 1.04229 12540 ft 348 kts 177°
2026-05-05 09:34 45.63092 1.04482 12080 ft 348 kts 178°
2026-05-05 09:35 45.60721 1.04731 11625 ft 346 kts 177°
2026-05-05 09:35 45.56023 1.05215 10728 ft 320 kts 178°
2026-05-05 09:35 45.53858 1.05439 10315 ft 303 kts 178°
2026-05-05 09:36 45.51832 1.05646 9935 ft 289 kts 178°
2026-05-05 09:36 45.49822 1.05847 9536 ft 289 kts 179°
2026-05-05 09:36 45.47823 1.06055 9153 ft 285 kts 179°
2026-05-05 09:36 45.45877 1.06259 8782 ft 275 kts 178°
2026-05-05 09:37 45.43981 1.06454 8430 ft 274 kts 179°
2026-05-05 09:37 45.42066 1.06648 8070 ft 276 kts 179°
2026-05-05 09:37 45.40146 1.06844 7707 ft 277 kts 178°
2026-05-05 09:37 45.38224 1.07043 7341 ft 276 kts 178°
2026-05-05 09:38 45.36340 1.07237 6985 ft 273 kts 178°
2026-05-05 09:38 45.34416 1.07434 6618 ft 273 kts 179°
2026-05-05 09:38 45.32524 1.07627 6257 ft 271 kts 178°
2026-05-05 09:38 45.30713 1.07817 5889 ft 251 kts 179°
2026-05-05 09:39 45.29033 1.07985 5566 ft 233 kts 178°
2026-05-05 09:39 45.27480 1.08139 5268 ft 220 kts 179°
2026-05-05 09:39 45.25989 1.08297 4983 ft 210 kts 179°
2026-05-05 09:39 45.24561 1.08449 4723 ft 201 kts 179°
2026-05-05 09:40 45.23184 1.08587 4465 ft 195 kts 179°
2026-05-05 09:40 45.21846 1.08721 4209 ft 190 kts 180°
2026-05-05 09:40 45.20549 1.08851 3961 ft 183 kts 180°
2026-05-05 09:40 45.19292 1.08980 3726 ft 181 kts 180°
2026-05-05 09:41 45.18070 1.08797 3447 ft 174 kts 203°
2026-05-05 09:41 45.17112 1.07891 3261 ft 162 kts 226°
2026-05-05 09:41 45.16302 1.06772 3071 ft 164 kts 226°
2026-05-05 09:41 45.15463 1.05650 2852 ft 167 kts 226°
2026-05-05 09:42 45.14621 1.04520 2628 ft 166 kts 226°
2026-05-05 09:42 45.14117 1.03736 2475 ft 161 kts 237°
2026-05-05 09:42 45.13729 1.02270 2308 ft 160 kts 262°
2026-05-05 09:42 45.13811 1.00730 2316 ft 157 kts 285°
2026-05-05 09:43 45.14244 0.99311 2335 ft 159 kts 293°
2026-05-05 09:43 45.14698 0.97846 2337 ft 163 kts 291°
2026-05-05 09:43 45.15144 0.96383 2331 ft 161 kts 291°
2026-05-05 09:43 45.15602 0.94904 2322 ft 160 kts 292°
2026-05-05 09:44 45.16004 0.93618 2235 ft 132 kts 291°
2026-05-05 09:44 45.16366 0.92445 2042 ft 129 kts 291°
2026-05-05 09:44 45.16725 0.91289 1853 ft 128 kts 291°
2026-05-05 09:44 45.17089 0.90115 1666 ft 131 kts 291°
2026-05-05 09:45 45.17454 0.88925 1454 ft 130 kts 291°
2026-05-05 09:45 45.17821 0.87757 1260 ft 131 kts 292°
2026-05-05 09:45 45.18187 0.86569 1063 ft 136 kts 291°
2026-05-05 09:45 45.18571 0.85336 856 ft 138 kts 292°
2026-05-05 09:46 45.18956 0.84092 638 ft 135 kts 292°
2026-05-05 09:46 45.19326 0.82889 419 ft 129 kts 291°
2026-05-05 09:46 45.19659 0.81798 322 ft 107 kts 295°
2026-05-05 09:46 45.19852 0.81219 309 ft 18 kts 298°
2026-05-05 09:47 45.19839 0.81199 308 ft 6 kts 137°
2026-05-05 09:47 45.19783 0.81176 309 ft 9 kts 204°
2026-05-05 09:47 45.19746 0.81189 312 ft 7 kts 121°
2026-05-05 09:47 45.19721 0.81266 314 ft 11 kts 114°
2026-05-05 09:48 45.19690 0.81339 315 ft 4 kts 115°
2026-05-05 09:48 45.19659 0.81351 316 ft 7 kts 196°
2026-05-05 09:48 45.19649 0.81370 317 ft 3 kts 51°
2026-05-05 09:48 45.19657 0.81369 316 ft 0 kts 340°